Location: Ljubljana
(46.0550°N, 14.5140°E)
Time: 11:18:42
(UTC+01:00)

Envisat - Visible Passes

Search period start: 22 February 2018 00:00
Search period end: 04 March 2018 00:00
Orbit: 764 x 766 km, 98.2° (Epoch: 21 February)

Date Brightness Start Highest point End Pass type
(mag) Time Alt. Az. Time Alt. Az. Time Alt. Az.
22 Feb 2.9 19:17:35 10° SSE 19:22:40 79° ENE 19:27:45 10° N visible
22 Feb 5.8 20:59:39 10° WSW 21:02:17 14° W 21:04:56 10° NW visible
23 Feb 3.5 18:41:25 10° SE 18:46:05 38° ENE 18:50:46 10° N visible
23 Feb 4.8 20:20:46 10° SSW 20:25:10 29° W 20:29:37 10° NW visible
24 Feb 4.3 18:06:06 10° ESE 18:09:42 20° ENE 18:13:19 10° NNE visible
24 Feb 3.4 19:43:14 10° S 19:48:15 62° W 19:53:19 10° NNW visible
25 Feb 2.9 19:06:32 10° SSE 19:11:32 64° ENE 19:16:35 10° N visible
25 Feb 5.5 20:47:39 10° SW 20:51:01 18° W 20:54:24 10° NW visible
26 Feb 3.7 18:30:36 10° SE 18:35:02 31° ENE 18:39:29 10° N visible
26 Feb 4.4 20:09:17 10° SSW 20:13:57 36° W 20:18:40 10° NNW visible
27 Feb 3.1 19:32:02 10° S 19:37:06 78° WSW 19:42:13 10° NNW visible
28 Feb 3.1 18:55:33 10° SE 19:00:27 51° ENE 19:05:23 10° N visible
28 Feb 5.3 20:35:52 10° SW 20:39:46 22° W 20:43:40 10° NW visible
01 Mar 4.0 18:19:51 10° ESE 18:23:59 26° ENE 18:28:09 10° N visible
01 Mar 4.0 19:57:54 10° S 20:02:46 45° W 20:07:39 10° NNW visible
02 Mar 2.9 19:20:53 10° SSE 19:25:58 86° ENE 19:31:04 10° NNW visible
02 Mar 5.9 21:03:26 10° WSW 21:05:40 13° W 21:07:54 10° WNW visible
03 Mar 3.4 18:44:38 10° SE 18:49:22 41° ENE 18:54:08 10° N visible
03 Mar 4.9 20:24:14 10° SSW 20:28:31 27° W 20:32:50 10° NW visible
